[[{"header":{"parameterUnit":"m.s-1","parameterCategory":1,"la1":30.2991,"la2":30.254,"lo1":-89.0895,"lo2":-89.0444,"dy":0.0017,"dx":0.0017,"nx":28,"ny":28,"refTime":"2025-03-31T21:00:00:Z","depth":0,"parameterNumber":2,"parameterNumberName":"U-component_of_WINDS"},"data":[0,0,0,0,0,0,0,0,0,0,0,0,0,0,0,0,0,0,0,0,0,0,0,0,0,0,0,0,0,0,0,0,0,0,0,0,0,0,0,0,0,0,0,0,0,0,0,0,0,0,0,0,0,0,0,0,0,0,-3.983,-3.9831,0,-3.9944,-3.9945,-3.9947,-3.9977,-3.9976,-3.9976,-3.9975,-4.0091,-4.0095,-4.0099,0,0,0,0,0,0,0,0,0,0,0,0,0,-3.9638,-3.9641,-3.983,-3.9831,-3.9833,-3.9944,-3.9946,-3.9947,-3.9977,-3.9976,-3.9975,-3.9975,-4.009,-4.0095,-4.0099,0,0,0,0,0,0,0,0,0,0,0,0,0,-3.9733,-3.9642,-3.9829,-3.9861,-3.9865,-3.9944,-3.9946,-3.9947,-3.9977,-3.9976,-3.9975,-3.9974,-4.0089,-4.0094,-4.01,-4.0155,0,0,-4.0117,-4.0119,0,0,0,0,0,0,0,0,-3.9728,-3.974,-3.9855,-3.9859,-3.9864,-3.9945,-3.9921,-4.0017,-3.9977,-3.9935,-3.9975,-3.9974,-4.0044,-4.0053,-4.0077,-4.016,-4.0165,-4.0117,-4.0121,-4.0123,-4.0125,0,0,0,0,0,0,0,-3.9721,-3.9736,-3.9875,-3.9857,-3.9862,-3.987,-3.9882,-3.9939,-3.9993,-3.9938,-3.9941,-3.9954,-4.0046,-4.0071,-4.0079,-4.0167,-4.0117,-4.0122,-4.0126,-4.0128,-4.0303,-4.0304,0,0,0,0,0,0,-3.9709,-3.973,-3.9871,-3.9878,-3.9792,-3.9874,-3.9888,-3.992,-3.9993,-4.0003,-3.9955,-3.9955,-4.0062,-4.0073,-4.0084,-4.0153,-4.0123,-4.0128,-4.0132,-4.0302,-4.0303,-4.0304,0,0,0,0,0,0,-3.9705,-3.9722,-3.9867,-3.9805,-3.9824,-3.9878,-3.9914,-3.9923,-3.9948,-4.0005,-4.0015,-3.997,-4.0062,-4.0076,-4.0137,-4.0157,-4.0131,-4.0136,-4.03,-4.0302,-4.0304,-4.0292,0,0,0,0,0,0,-3.9699,-3.972,-3.9741,-3.9805,-3.9827,-3.9918,-3.9916,-3.9926,-3.9958,-3.9959,-4.0023,-4.0032,-4.0062,-4.0129,-4.0143,-4.0165,-4.014,-4.0298,-4.0301,-4.0303,-4.0291,-4.0293,-4.0295,0,0,0,0,0,-3.9692,-3.9733,-3.9742,-3.9759,-3.9855,-3.9919,-3.9932,-3.9965,-3.9959,-3.9981,-4.0018,-4.003,-4.0153,-4.0135,-4.0151,-4.0175,-4.0297,-4.03,-4.0303,-4.029,-4.0293,-4.0295,0,0,0,0,0,0,-3.9669,-3.9742,-3.9753,-3.9815,-3.9861,-3.9924,-3.9952,-3.9967,-4.0015,-4.0014,-4.0054,-4.0068,-4.0126,-4.0157,-4.0135,-4.0232,-4.0225,-4.0232,-4.021,-4.0213,-4.0215,-4.0206,-4.0145,0,0,0,0,0,-3.9672,-3.9718,-3.9779,-3.9828,-3.985,-3.9898,-3.9927,-3.9949,-3.9997,-4.0017,-4.0058,-4.0105,-4.0154,-4.0186,-4.0234,-4.0296,-4.031,-4.0321,-4.0323,-4.0325,-4.0329,-4.0364,-4.0369,-4.0314,-4.0314,-4.0314,0,0,-3.9676,-3.9722,-3.9748,-3.9825,-3.9862,-3.9909,-3.9913,-3.9963,-3.9998,-4.0024,-4.0084,-4.0117,-4.0172,-4.0233,-4.0263,-4.0261,-4.0348,-4.0328,-4.0329,-4.0333,-4.0367,-4.0372,-4.0377,-4.0316,-4.0316,-4.0315,0,0,-3.9709,-3.9748,-3.9793,-3.9832,-3.9889,-3.9921,-3.9932,-3.9993,-4.0016,-4.0077,-4.0098,-4.0141,-4.0225,-4.0263,-4.0294,-4.0343,-4.0355,-4.0358,-4.0369,-4.0402,-4.0407,-4.0411,-4.0427,-4.0433,-4.0362,-4.0362,-4.0362,0,-3.9707,-3.9779,-3.9815,-3.9863,-3.9896,-3.9923,-3.997,-4.0005,-4.0075,-4.0097,-4.0095,-4.0201,-4.024,-4.0311,-4.0323,-4.0347,-4.0361,-4.0349,-4.0403,-4.0408,-4.0412,-4.0428,-4.0434,-4.0362,-4.0362,-4.0362,-4.0362,0,-3.9774,-3.9823,-3.9853,-3.992,-3.9957,-4.0004,-4.0047,-4.008,-4.01,-4.0132,-4.0194,-4.0242,-4.0301,-4.032,-4.0339,-4.0394,-4.0391,-4.0395,-4.0389,-4.0416,-4.0432,-4.0439,-4.0362,-4.0362,-4.0362,-4.0362,0,0,-3.9792,-3.9881,-3.9891,-3.9922,-3.9989,-4.0027,-4.0076,-4.0134,-4.0161,-4.021,-4.0251,-4.0323,-4.0327,-4.0362,-4.0386,-4.0416,-4.0451,-4.0417,-4.0419,-4.042,-4.0514,-4.0509,-4.0515,-4.0461,-4.0462,-4.0463,-4.0509,0,-3.9832,-3.992,-3.9955,-4.0026,-4.0072,-4.0099,-4.0142,-4.0187,-4.0219,-4.0263,-4.0298,-4.0347,-4.035,-4.0371,-4.0402,-4.044,-4.047,-4.0437,-4.0499,-4.0501,-4.0482,-4.0524,-4.0519,-4.0559,-4.0515,-4.0516,-4.0517,0,-3.989,-3.9939,-4.0014,-4.0076,-4.0096,-4.0134,-4.019,-4.0232,-4.0284,-4.0305,-4.0345,-4.0367,-4.042,-4.0412,-4.0484,-4.0462,-4.0489,-4.0512,-4.0514,-4.052,-4.0509,-4.0529,-4.0573,-4.0578,-4.0527,-4.0527,-4.0526,0,-3.9894,-3.998,-4.0036,-4.0062,-4.0135,-4.0161,-4.0193,-4.0244,-4.0277,-4.0327,-4.0348,-4.0403,-4.0433,-4.0475,-4.0512,-4.0503,-4.0582,-4.0577,-4.06,-4.0599,-4.0613,-4.0612,-4.0661,-4.0634,-4.0634,-4.0634,-4.0634,0,-3.9934,-3.9979,-4.0039,-4.0073,-4.0125,-4.0165,-4.0215,-4.0249,-4.0295,-4.0336,-4.0364,-4.0403,-4.045,-4.0495,-4.0525,-4.058,-4.0594,-4.0612,-4.0619,-4.0609,-4.0606,-4.0626,-4.0623,-4.0635,-4.0635,-4.0635,-4.0634,0,-3.9947,-3.9989,-4.0052,-4.0117,-4.0134,-4.0169,-4.0225,-4.0259,-4.0293,-4.0345,-4.036,-4.0413,-4.0467,-4.0509,-4.058,-4.06,-4.0658,-4.0666,-4.064,-4.0643,-4.0664,-4.0661,-4.0726,-4.0736,-4.0704,-4.0704,-4.0704,0,-3.9968,-4.0004,-4.0072,-4.0102,-4.0134,-4.0182,-4.0216,-4.0258,-4.0292,-4.0355,-4.0382,-4.0438,-4.0485,-4.0571,-4.0616,-4.067,-4.0679,-4.0698,-4.0687,-4.0676,-4.0678,-4.0675,-4.0678,-4.0699,-4.0699,-4.0699,-4.0699,0,-4.0002,-4.0021,-4.0069,-4.0124,-4.0164,-4.021,-4.0256,-4.0279,-4.0329,-4.0366,-4.0422,-4.0459,-4.0531,-4.0587,-4.0646,-4.0679,-4.0697,-4.0703,-4.0711,-4.0699,-4.0682,-4.0691,-4.0642,-4.07,-4.07,-4.07,-4.07,-4.07,-4.0019,-4.0052,-4.0105,-4.0158,-4.0197,-4.024,-4.0276,-4.0314,-4.0362,-4.0424,-4.0446,-4.0503,-4.0556,-4.0638,-4.0671,-4.0717,-4.0718,-4.073,-4.0733,-4.0734,-4.0733,-4.0676,-4.0728,-4.0728,-4.0728,-4.0728,-4.0728,0,-4.0053,-4.0089,-4.0137,-4.0201,-4.0243,-4.0258,-4.031,-4.0343,-4.0393,-4.0441,-4.0487,-4.0552,-4.0606,-4.0656,-4.0712,-4.074,-4.0749,-4.0753,-4.075,-4.0758,-4.0729,-4.0716,-4.0744,-4.0744,-4.0744,-4.0744,-4.0744,-4.0744,-4.0076,-4.0132,-4.0158,-4.0233,-4.027,-4.0326,-4.0355,-4.0394,-4.0433,-4.0503,-4.0549,-4.0581,-4.063,-4.0691,-4.0741,-4.0755,-4.0773,-4.0775,-4.079,-4.0762,-4.076,-4.0758,-4.0745,-4.0779,-4.0779,-4.0814,-4.0814,-4.0815]},{"header":{"parameterUnit":"m.s-1","parameterCategory":1,"la1":30.2991,"la2":30.254,"lo1":-89.0895,"lo2":-89.0444,"dy":0.0017,"dx":0.0017,"nx":28,"ny":28,"refTime":"2025-03-31T21:00:00:Z","depth":0,"parameterNumber":3,"parameterNumberName":"V-component_of_WINDS"},"data":[0,0,0,0,0,0,0,0,0,0,0,0,0,0,0,0,0,0,0,0,0,0,0,0,0,0,0,0,0,0,0,0,0,0,0,0,0,0,0,0,0,0,0,0,0,0,0,0,0,0,0,0,0,0,0,0,0,0,6.6522,6.6522,0,6.6552,6.6553,6.6553,6.6511,6.6509,6.6508,6.6507,6.6534,6.6536,6.6539,0,0,0,0,0,0,0,0,0,0,0,0,0,6.6425,6.6427,6.6522,6.6522,6.6523,6.6552,6.6553,6.6553,6.6511,6.6509,6.6508,6.6506,6.6534,6.6536,6.6539,0,0,0,0,0,0,0,0,0,0,0,0,0,6.6463,6.6428,6.6522,6.6505,6.6504,6.6552,6.6553,6.6553,6.6512,6.6509,6.6507,6.6505,6.6533,6.6536,6.6539,6.6604,0,0,6.6549,6.655,0,0,0,0,0,0,0,0,6.6461,6.6466,6.6507,6.6507,6.6505,6.6526,6.6529,6.657,6.6512,6.6509,6.6507,6.6504,6.6533,6.6536,6.6547,6.6605,6.6606,6.6549,6.6551,6.6552,6.6553,0,0,0,0,0,0,0,6.6458,6.6465,6.6534,6.6508,6.6507,6.6496,6.6499,6.6536,6.6533,6.6509,6.6506,6.651,6.6532,6.6544,6.6547,6.6606,6.6549,6.6552,6.6554,6.6555,6.6721,6.6724,0,0,0,0,0,0,6.6458,6.6463,6.6533,6.6535,6.6477,6.6499,6.6503,6.6521,6.6532,6.6532,6.6512,6.6508,6.6539,6.6543,6.6548,6.6626,6.6552,6.6555,6.6557,6.6719,6.6722,6.6725,0,0,0,0,0,0,6.6456,6.6464,6.6532,6.6498,6.6506,6.6503,6.6525,6.6523,6.6535,6.6535,6.6534,6.6525,6.6538,6.6543,6.6591,6.6626,6.6557,6.656,6.6716,6.672,6.6723,6.6781,0,0,0,0,0,0,6.6453,6.6464,6.6489,6.6499,6.6508,6.6575,6.6527,6.6525,6.6541,6.6536,6.6547,6.6546,6.6536,6.6586,6.6594,6.6629,6.6562,6.6713,6.6718,6.6722,6.6776,6.6786,6.6795,0,0,0,0,0,6.645,6.6502,6.649,6.6499,6.6539,6.6577,6.6582,6.657,6.6544,6.6569,6.6569,6.6546,6.6621,6.6591,6.66,6.6637,6.6711,6.6716,6.6722,6.6772,6.6784,6.6795,0,0,0,0,0,0,6.6494,6.6503,6.649,6.6547,6.6562,6.657,6.66,6.6584,6.6605,6.66,6.6584,6.6586,6.6638,6.6641,6.6609,6.6701,6.6661,6.6669,6.6696,6.6708,6.6718,6.6716,6.6565,0,0,0,0,0,6.6511,6.6543,6.6548,6.6598,6.6607,6.6603,6.6619,6.6609,6.6623,6.6628,6.6632,6.6646,6.6673,6.669,6.6715,6.6776,6.6779,6.6806,6.6815,6.6823,6.683,6.6865,6.6878,6.6743,6.6743,6.6743,0,0,6.6546,6.6554,6.6575,6.6608,6.6618,6.665,6.6608,6.6643,6.6667,6.6633,6.6679,6.6683,6.6697,6.6752,6.6777,6.6757,6.6868,6.683,6.6837,6.6839,6.6872,6.6885,6.6896,6.6747,6.6746,6.6746,0,0,6.6625,6.6635,6.6679,6.6691,6.6707,6.6705,6.6716,6.6727,6.6728,6.6774,6.6751,6.6778,6.6824,6.6836,6.6848,6.6935,6.6915,6.6943,6.6994,6.7028,6.7038,6.7048,6.708,6.7092,6.695,6.695,6.695,0,6.6666,6.6715,6.6703,6.6742,6.6757,6.673,6.6775,6.6786,6.681,6.6821,6.6799,6.6858,6.6865,6.6924,6.6946,6.6956,6.6968,6.6942,6.7038,6.7047,6.7056,6.7087,6.7099,6.6954,6.6953,6.6953,6.6953,0,6.6765,6.6799,6.6832,6.6858,6.6877,6.6919,6.6913,6.6934,6.6923,6.6923,6.6971,6.698,6.7006,6.7019,6.7008,6.7077,6.7065,6.7041,6.7001,6.7072,6.7101,6.7113,6.6959,6.6958,6.6957,6.6956,0,0,6.6872,6.6893,6.6906,6.6918,6.6936,6.6962,6.7002,6.703,6.7049,6.7066,6.71,6.7141,6.712,6.7133,6.7123,6.7153,6.7224,6.7125,6.7125,6.7145,6.7303,6.7322,6.7336,6.7211,6.7213,6.7215,6.7302,0,6.6953,6.7025,6.7017,6.7085,6.7118,6.7093,6.7128,6.7143,6.7144,6.7172,6.7172,6.7202,6.7171,6.7179,6.7208,6.7209,6.7256,6.7203,6.7242,6.7244,6.7241,6.7351,6.7371,6.7453,6.7313,6.7315,6.7316,0,6.7057,6.7081,6.7154,6.7169,6.7182,6.7214,6.724,6.7266,6.7283,6.7282,6.7299,6.7284,6.7324,6.7284,6.734,6.7304,6.732,6.7324,6.7326,6.733,6.7285,6.7359,6.7479,6.7492,6.7334,6.7332,6.7331,0,6.7131,6.7181,6.7231,6.7242,6.7261,6.7284,6.7293,6.7307,6.7325,6.7347,6.7359,6.7385,6.74,6.7421,6.7414,6.7384,6.7472,6.743,6.7472,6.7473,6.7492,6.7492,6.7618,6.7501,6.7501,6.75,6.75,0,6.7223,6.7269,6.7265,6.7296,6.7347,6.7337,6.7387,6.7392,6.7406,6.7437,6.7416,6.7446,6.7435,6.7464,6.7458,6.7507,6.7513,6.7513,6.7511,6.7516,6.7516,6.7527,6.7521,6.7504,6.7503,6.7502,6.7502,0,6.7314,6.7313,6.7367,6.7381,6.7386,6.7423,6.7434,6.7463,6.7464,6.7504,6.7513,6.7513,6.7546,6.7542,6.7578,6.7574,6.7635,6.7626,6.7631,6.7629,6.7672,6.7669,6.781,6.7829,6.7699,6.77,6.7701,0,6.7374,6.7409,6.7428,6.7448,6.7459,6.7492,6.7511,6.7503,6.7524,6.7547,6.7573,6.7605,6.7631,6.7685,6.7688,6.7716,6.7708,6.7756,6.7712,6.7716,6.7711,6.7709,6.7714,6.7765,6.7766,6.7767,6.7768,0,6.7481,6.7479,6.7508,6.7539,6.7563,6.7585,6.7606,6.7624,6.7617,6.7642,6.7677,6.7697,6.7735,6.7768,6.7795,6.7802,6.7785,6.7782,6.7794,6.7799,6.7801,6.7803,6.7656,6.7779,6.7778,6.7777,6.7777,6.7776,6.7559,6.759,6.7609,6.7642,6.7658,6.7678,6.7707,6.7712,6.7742,6.7774,6.7767,6.7807,6.7823,6.7858,6.7869,6.79,6.7882,6.7899,6.7903,6.7908,6.7914,6.7796,6.7905,6.7904,6.7904,6.7904,6.7903,0,6.7666,6.7677,6.7709,6.774,6.7767,6.7749,6.7771,6.7795,6.7831,6.7849,6.7875,6.7916,6.7948,6.7954,6.7985,6.8009,6.8001,6.8017,6.8016,6.8018,6.7927,6.7915,6.8022,6.8022,6.8022,6.8022,6.8022,6.8022,6.7725,6.7777,6.7778,6.7838,6.7849,6.7889,6.7904,6.7923,6.7937,6.7985,6.8012,6.8017,6.803,6.8062,6.809,6.8091,6.8104,6.8123,6.8121,6.8036,6.8024,6.8013,6.8001,6.8126,6.8126,6.821,6.8211,6.8211]}]]